Tracking 29528 objects as of 12-Sep-2024
HD Live streaming from Space Station
objects crossing your sky now

HAYASAT-1

Track HAYASAT-1 now!
10-day predictions
HAYASAT-1 is classified as:


NORAD ID: 58471
Int'l Code: 2023-185K
Perigee: 471.1 km
Apogee: 483.8 km
Inclination: 97.4 °
Period: 94.0 minutes
Semi major axis: 6848 km
RCS: Unknown
Launch date: December 1, 2023
Source: (TBD)
Launch site: AIR FORCE WESTERN TEST RANGE (AFWTR)

Uplink (MHz):
Downlink (MHz): 437.020
Beacon (MHz):
Mode: 9600bps GFSK
Call sign: EK1HYS
Status: Active


Uplink (MHz):
Downlink (MHz): 436.250
Beacon (MHz):
Mode: 2400bps GMSK
Call sign: FX6FRC
Status: Active

Your satellite tracking list
Your tracking list is empty




NASA's NSSDC Master Catalog

Two Line Element Set (TLE):
1 58471U 23185K   24256.19377162  .00053623  00000-0  17339-2 0  9993
2 58471  97.4163 322.8001 0009228 328.5906  31.4784 15.31849187 43446
Source of the keplerian elements: AFSPC